DM1MT Weather Reports


time (UTC)temp
C
wind
direction
speed
KPH
gust
KPH
rain 1hr
cm
rain 24hr
cm
rain mn
cm
humidity
%
barometer
mb
20260902195612 19 0.0 0.0 0.00 0.00 0.00 59 1021.3
20260902194652 19 0.0 0.0 0.00 0.00 0.00 57 1021.3
20260902193607 19 0.0 0.0 0.00 0.00 0.00 54 1021.1
20260902192538 20 0.0 0.0 0.00 0.00 0.00 53 1021.0
20260902191542 20 281 0.0 3.2 0.00 0.00 0.00 52 1020.6
20260902190544 20 332 0.0 3.2 0.00 0.00 0.00 52 1020.7
20260902185553 20 334 1.6 8.0 0.00 0.00 0.00 52 1020.6
20260902184618 20 312 1.6 3.2 0.00 0.00 0.00 52 1020.5
20260902183617 20 337 3.2 8.0 0.00 0.00 0.00 52 1020.5
20260902182612 20 328 1.6 8.0 0.00 0.00 0.00 53 1020.4
20260902181653 20 328 3.2 8.0 0.00 0.00 0.00 53 1020.3
20260902180652 20 358 3.2 12.9 0.00 0.00 0.00 53 1020.3
20260902175632 20 8 3.2 3.2 0.00 0.00 0.00 53 1020.1
20260902174542 21 315 1.6 8.0 0.00 0.00 0.00 52 1020.0
20260902173632 21 354 3.2 12.9 0.00 0.00 0.00 51 1020.1
20260902172632 21 349 4.8 8.0 0.00 0.00 0.00 50 1020.0
20260902171632 21 314 4.8 12.9 0.00 0.00 0.00 50 1020.2
20260902170632 22 320 4.8 16.1 0.00 0.00 0.00 49 1019.9
20260902165631 22 3 8.0 20.9 0.00 0.00 0.00 48 1019.9
20260902164632 23 311 6.4 16.1 0.00 0.00 0.00 49 1020.0
20260902163632 23 347 9.7 20.9 0.00 0.00 0.00 48 1020.0
20260902162632 23 320 3.2 12.9 0.00 0.00 0.00 47 1020.0
20260902161652 24 304 3.2 12.9 0.00 0.00 0.00 45 1020.0
20260902160632 25 308 8.0 20.9 0.00 0.00 0.00 44 1019.8
20260902155631 25 257 6.4 12.9 0.00 0.00 0.00 43 1019.8
20260902154632 25 302 9.7 37.0 0.00 0.00 0.00 39 1019.6
20260902153632 25 261 11.3 24.1 0.00 0.00 0.00 37 1019.7
20260902152631 25 272 9.7 24.1 0.00 0.00 0.00 37 1019.9
20260902151632 25 248 12.9 24.1 0.00 0.00 0.00 35 1019.9
20260902150631 25 297 11.3 20.9 0.00 0.00 0.00 38 1020.0
20260902145611 25 303 12.9 27.4 0.00 0.00 0.00 39 1019.9
20260902144611 25 244 8.0 20.9 0.00 0.00 0.00 40 1020.0
20260902143611 25 257 9.7 20.9 0.00 0.00 0.00 40 1019.9
20260902142652 24 250 6.4 16.1 0.00 0.00 0.00 41 1019.7
20260902141651 24 239 9.7 20.9 0.00 0.00 0.00 41 1019.9
20260902140631 24 245 14.5 32.2 0.00 0.00 0.00 42 1020.0
20260902135711 25 262 12.9 27.4 0.00 0.00 0.00 41 1020.0
20260902134631 25 242 9.7 20.9 0.00 0.00 0.00 42 1020.0
20260902133631 25 299 6.4 20.9 0.00 0.00 0.00 43 1019.8
20260902132632 25 265 11.3 24.1 0.00 0.00 0.00 43 1019.8
20260902131611 24 199 8.0 20.9 0.00 0.00 0.00 43 1020.0
20260902130631 24 236 9.7 20.9 0.00 0.00 0.00 46 1020.0
20260902125631 23 243 6.4 16.1 0.00 0.00 0.00 47 1020.0
20260902124632 24 242 6.4 12.9 0.00 0.00 0.00 47 1020.0
20260902123631 24 273 12.9 24.1 0.00 0.00 0.00 49 1020.1
20260902122711 25 228 8.0 16.1 0.00 0.00 0.00 48 1020.2
20260902121651 25 236 11.3 20.9 0.00 0.00 0.00 46 1020.2
20260902120631 24 255 9.7 24.1 0.00 0.00 0.00 46 1020.3
20260902115651 24 235 17.7 32.2 0.00 0.00 0.00 48 1020.5
20260902114631 23 225 11.3 24.1 0.00 0.00 0.00 48 1020.3
20260902113631 23 251 12.9 20.9 0.00 0.00 0.00 48 1020.3
20260902112631 23 235 9.7 20.9 0.00 0.00 0.00 49 1020.4
20260902111631 23 227 8.0 20.9 0.00 0.00 0.00 49 1020.4
20260902110631 23 260 9.7 20.9 0.00 0.00 0.00 48 1020.5
20260902105631 23 235 11.3 32.2 0.00 0.00 0.00 49 1020.7
20260902104631 23 183 3.2 12.9 0.00 0.00 0.00 55 1021.0
20260902103631 23 231 3.2 8.0 0.00 0.00 0.00 56 1021.1
20260902102631 22 214 1.6 8.0 0.00 0.00 0.00 54 1021.0
20260902101631 22 230 0.0 3.2 0.00 0.00 0.00 60 1021.0
20260902100631 22 177 4.8 12.9 0.00 0.00 0.00 61 1021.2
20260902095611 22 284 3.2 12.9 0.00 0.00 0.00 60 1021.2
20260902094651 22 153 1.6 3.2 0.00 0.00 0.00 60 1021.1
20260902093611 21 156 1.6 3.2 0.00 0.00 0.00 61 1021.2
20260902092611 21 219 1.6 8.0 0.00 0.00 0.00 64 1021.3
20260902091611 21 224 1.6 8.0 0.00 0.00 0.00 62 1021.3
20260902090611 20 153 1.6 8.0 0.00 0.00 0.00 65 1021.3
20260902085611 20 52 0.0 3.2 0.00 0.00 0.00 66 1021.6
20260902084611 19 174 1.6 8.0 0.00 0.00 0.00 69 1021.4
20260902083611 18 131 1.6 8.0 0.00 0.00 0.00 72 1021.5
20260902082611 18 317 0.0 3.2 0.00 0.00 0.00 70 1021.4
20260902081611 17 218 0.0 8.0 0.00 0.00 0.00 73 1021.4
20260902080611 17 112 0.0 3.2 0.00 0.00 0.00 74 1021.2
20260902075611 17 190 1.6 3.2 0.00 0.00 0.00 77 1021.1
20260902074631 17 168 0.0 8.0 0.00 0.00 0.00 77 1021.0
20260902073631 16 0.0 0.0 0.00 0.00 0.00 76 1021.2
20260902072651 16 0.0 0.0 0.00 0.00 0.00 75 1021.0
20260902071631 15 0.0 0.0 0.00 0.00 0.00 79 1021.0
20260902070631 14 0.0 0.0 0.00 0.00 0.00 84 1021.0
20260902065711 13 0.0 0.0 0.00 0.00 0.00 86 1020.8
20260902064631 13 0.0 0.0 0.00 0.00 0.00 87 1020.9
20260902063554 13 0.0 0.0 0.00 0.00 0.00 88 1021.0
20260902062631 12 0.0 0.0 0.00 0.00 0.00 89 1021.0
20260902061631 12 0.0 0.0 0.00 0.00 0.00 90 1021.0
20260902060631 12 0.0 0.0 0.00 0.00 0.00 90 1020.8
20260902055631 12 0.0 3.2 0.00 0.00 0.00 90 1020.7
20260902054631 12 0.0 0.0 0.00 0.00 0.00 90 1020.9
20260902053630 12 0.0 0.0 0.00 0.00 0.00 90 1021.0
20260902052651 12 252 0.0 3.2 0.00 0.00 0.00 90 1021.0
20260902051631 12 0.0 0.0 0.00 0.00 0.00 90 1020.9
20260902050630 12 0.0 0.0 0.00 0.00 0.00 90 1020.8
20260902045630 12 0.0 0.0 0.00 0.00 0.00 90 1020.7
20260902044611 12 0.0 0.0 0.00 0.00 0.00 90 1020.5
20260902043611 11 0.0 0.0 0.00 0.00 0.00 90 1020.8
20260902042630 11 0.0 0.0 0.00 0.00 0.00 90 1020.9
20260902041630 11 0.0 0.0 0.00 0.00 0.00 90 1020.7
20260902040630 11 0.0 0.0 0.00 0.00 0.00 90 1020.9
20260902035650 11 0.0 0.0 0.00 0.00 0.00 90 1020.9
20260902034631 11 0.0 0.0 0.00 0.00 0.00 90 1020.9
20260902033710 11 0.0 0.0 0.00 0.00 0.00 90 1020.9
20260902032630 11 0.0 0.0 0.00 0.00 0.00 90 1020.8
20260902031630 11 0.0 0.0 0.00 0.00 0.00 90 1020.9
20260902030610 11 0.0 0.0 0.00 0.00 0.00 90 1021.0
20260902025630 11 0.0 0.0 0.00 0.00 0.00 90 1021.0
20260902024631 11 0.0 0.0 0.00 0.00 0.00 90 1021.0
20260902023630 11 0.0 0.0 0.00 0.00 0.00 89 1021.1
20260902022650 11 0.0 0.0 0.00 0.00 0.00 89 1021.0
20260902021630 12 0.0 0.0 0.00 0.00 0.00 89 1020.9
20260902020630 12 0.0 0.0 0.00 0.00 0.00 89 1021.0
20260902015650 12 0.0 0.0 0.00 0.00 0.00 89 1021.0
20260902014630 12 0.0 0.0 0.00 0.00 0.00 89 1021.0
20260902013630 12 0.0 0.0 0.00 0.00 0.00 89 1020.9
20260902012550 12 0.0 0.0 0.00 0.00 0.00 89 1020.9
20260902011610 12 0.0 0.0 0.00 0.00 0.00 88 1020.9
20260902010630 12 0.0 0.0 0.00 0.00 0.00 88 1021.0
20260902005650 13 0.0 0.0 0.00 0.00 0.00 88 1020.9
20260902004650 13 0.0 0.0 0.00 0.00 0.00 88 1021.0
20260902003610 13 0.0 0.0 0.00 0.00 0.00 88 1021.1
20260902002610 13 0.0 0.0 0.00 0.00 0.00 87 1021.1
20260902001630 13 0.0 0.0 0.00 0.00 0.00 87 1021.1
20260902000610 13 0.0 0.0 0.00 0.00 0.00 87 1021.4
20260901235610 13 0.0 0.0 0.00 0.00 0.00 87 1021.3
20260901234610 13 0.0 0.0 0.00 0.00 0.00 87 1021.4
20260901233610 13 0.0 0.0 0.00 0.00 0.00 87 1021.4
20260901232610 13 0.0 0.0 0.00 0.00 0.00 87 1021.3
20260901231610 13 0.0 0.0 0.00 0.00 0.00 86 1021.5
20260901230610 13 0.0 0.0 0.00 0.00 0.00 86 1021.2
20260901225610 13 0.0 0.0 0.00 0.00 0.00 86 1021.2
20260901224610 13 0.0 0.0 0.00 0.00 0.00 85 1021.3
20260901223610 14 0.0 0.0 0.00 0.00 0.00 85 1021.5
20260901222610 14 0.0 0.0 0.00 0.00 0.00 85 1021.2
20260901221610 15 0.0 0.0 0.00 0.00 0.00 85 1021.2
20260901220610 15 0.0 3.2 0.00 0.00 0.00 84 1021.0
20260901215610 15 0.0 0.0 0.00 0.00 0.00 84 1021.1
20260901214610 15 0.0 0.0 0.00 0.00 0.00 83 1021.0
20260901213610 16 0.0 0.0 0.00 0.00 0.00 82 1021.0
20260901212610 16 0.0 0.0 0.00 0.00 0.00 81 1021.0
20260901211610 17 0.0 0.0 0.00 0.00 0.00 80 1021.0
20260901210610 17 0.0 0.0 0.00 0.00 0.00 78 1021.1
20260901205610 17 0.0 0.0 0.00 0.00 0.00 75 1021.1
20260901204610 17 54 0.0 3.2 0.00 0.00 0.00 74 1021.1
20260901203610 17 7 1.6 8.0 0.00 0.00 0.00 74 1021.0
20260901202553 18 9 0.0 3.2 0.00 0.00 0.00 73 1021.1
20260901201630 18 348 1.6 8.0 0.00 0.00 0.00 73 1021.1
20260901200610 18 0.0 0.0 0.00 0.00 0.00 72 1021.1